Year,Month,Day,Hour,Minute,Value (Times are PST for temperature in C)
2021,03,28,00,00,8.80
2021,03,28,00,01,8.80
2021,03,28,00,02,8.80
2021,03,28,00,03,8.80
2021,03,28,00,04,8.80
2021,03,28,00,05,8.80
2021,03,28,00,06,8.80
2021,03,28,00,07,8.80
2021,03,28,00,08,8.80
2021,03,28,00,09,8.80
2021,03,28,00,10,8.80
2021,03,28,00,11,8.80
2021,03,28,00,12,8.80
2021,03,28,00,13,8.90
2021,03,28,00,14,8.90
2021,03,28,00,15,8.90
2021,03,28,00,16,8.90
2021,03,28,00,17,8.90
2021,03,28,00,18,8.90
2021,03,28,00,19,8.90
2021,03,28,00,20,8.90
2021,03,28,00,21,8.90
2021,03,28,00,22,8.90
2021,03,28,00,23,8.90
2021,03,28,00,24,8.90
2021,03,28,00,25,8.90
2021,03,28,00,26,8.80
2021,03,28,00,27,8.80
2021,03,28,00,28,8.80
2021,03,28,00,29,8.80
2021,03,28,00,30,8.80
2021,03,28,00,31,8.80
2021,03,28,00,32,8.80
2021,03,28,00,33,8.80
2021,03,28,00,34,8.80
2021,03,28,00,35,8.80
2021,03,28,00,36,8.80
2021,03,28,00,37,8.80
2021,03,28,00,38,8.80
2021,03,28,00,39,8.80
2021,03,28,00,40,8.80
2021,03,28,00,41,8.80
2021,03,28,00,42,8.80
2021,03,28,00,43,8.80
2021,03,28,00,44,8.80
2021,03,28,00,45,8.80
2021,03,28,00,46,8.80
2021,03,28,00,47,8.80
2021,03,28,00,48,8.80
2021,03,28,00,49,8.80
2021,03,28,00,50,8.80
2021,03,28,00,51,8.80
2021,03,28,00,52,8.80
2021,03,28,00,53,8.80
2021,03,28,00,54,8.80
2021,03,28,00,55,8.80
2021,03,28,00,56,8.80
2021,03,28,00,57,8.70
2021,03,28,00,58,8.70
2021,03,28,00,59,8.70
2021,03,28,01,00,8.70
2021,03,28,01,01,8.70
2021,03,28,01,02,8.70
2021,03,28,01,03,8.70
2021,03,28,01,04,8.70
2021,03,28,01,05,8.70
2021,03,28,01,06,8.70
2021,03,28,01,07,8.70
2021,03,28,01,08,8.70
2021,03,28,01,09,8.70
2021,03,28,01,10,8.70
2021,03,28,01,11,8.70
2021,03,28,01,12,8.70
2021,03,28,01,13,8.70
2021,03,28,01,14,8.70
2021,03,28,01,15,8.70
2021,03,28,01,16,8.70
2021,03,28,01,17,8.70
2021,03,28,01,18,8.70
2021,03,28,01,19,8.70
2021,03,28,01,20,8.70
2021,03,28,01,21,8.70
2021,03,28,01,22,8.70
2021,03,28,01,23,8.70
2021,03,28,01,24,8.70
2021,03,28,01,25,8.60
2021,03,28,01,26,8.60
2021,03,28,01,27,8.70
2021,03,28,01,28,8.70
2021,03,28,01,29,8.70
2021,03,28,01,30,8.70
2021,03,28,01,31,8.70
2021,03,28,01,32,8.70
2021,03,28,01,33,8.70
2021,03,28,01,34,8.70
2021,03,28,01,35,8.70
2021,03,28,01,36,8.70
2021,03,28,01,37,8.70
2021,03,28,01,38,8.70
2021,03,28,01,39,8.70
2021,03,28,01,40,8.70
2021,03,28,01,41,8.70
2021,03,28,01,42,8.70
2021,03,28,01,43,8.70
2021,03,28,01,44,8.70
2021,03,28,01,45,8.70
2021,03,28,01,46,8.70
2021,03,28,01,47,8.70
2021,03,28,01,48,8.70
2021,03,28,01,49,8.70
2021,03,28,01,50,8.60
2021,03,28,01,51,8.60
2021,03,28,01,52,8.60
2021,03,28,01,53,8.60
2021,03,28,01,54,8.60
2021,03,28,01,55,8.60
2021,03,28,01,56,8.60
2021,03,28,01,57,8.60
2021,03,28,01,58,8.50
2021,03,28,01,59,8.50
2021,03,28,02,00,8.40
2021,03,28,02,01,8.40
2021,03,28,02,02,8.40
2021,03,28,02,03,8.40
2021,03,28,02,04,8.30
2021,03,28,02,05,8.30
2021,03,28,02,06,8.30
2021,03,28,02,07,8.20
2021,03,28,02,08,8.20
2021,03,28,02,09,8.20
2021,03,28,02,10,8.20
2021,03,28,02,11,8.10
2021,03,28,02,12,8.10
2021,03,28,02,13,8.10
2021,03,28,02,14,8.10
2021,03,28,02,15,8.10
2021,03,28,02,16,8.20
2021,03,28,02,17,8.20
2021,03,28,02,18,8.30
2021,03,28,02,19,8.30
2021,03,28,02,20,8.30
2021,03,28,02,21,8.30
2021,03,28,02,22,8.40
2021,03,28,02,23,8.40
2021,03,28,02,24,8.40
2021,03,28,02,25,8.40
2021,03,28,02,26,8.40
2021,03,28,02,27,8.50
2021,03,28,02,28,8.50
2021,03,28,02,29,8.50
2021,03,28,02,30,8.60
2021,03,28,02,31,8.60
2021,03,28,02,32,8.60
2021,03,28,02,33,8.70
2021,03,28,02,34,8.70
2021,03,28,02,35,8.70
2021,03,28,02,36,8.70
2021,03,28,02,37,8.70
2021,03,28,02,38,8.70
2021,03,28,02,39,8.70
2021,03,28,02,40,8.70
2021,03,28,02,41,8.70
2021,03,28,02,42,8.80
2021,03,28,02,43,8.80
2021,03,28,02,44,8.80
2021,03,28,02,45,8.80
2021,03,28,02,46,8.80
2021,03,28,02,47,8.80
2021,03,28,02,48,8.80
2021,03,28,02,49,8.70
2021,03,28,02,50,8.70
2021,03,28,02,51,8.70
2021,03,28,02,52,8.70
2021,03,28,02,53,8.70
2021,03,28,02,54,8.70
2021,03,28,02,55,8.60
2021,03,28,02,56,8.60
2021,03,28,02,57,8.60
2021,03,28,02,58,8.60
2021,03,28,02,59,8.60
2021,03,28,03,00,8.60
2021,03,28,03,01,8.70
2021,03,28,03,02,8.70
2021,03,28,03,03,8.70
2021,03,28,03,04,8.70
2021,03,28,03,05,8.70
2021,03,28,03,06,8.70
2021,03,28,03,07,8.70
2021,03,28,03,08,8.80
2021,03,28,03,09,8.80
2021,03,28,03,10,8.80
2021,03,28,03,11,8.80
2021,03,28,03,12,8.80
2021,03,28,03,13,8.90
2021,03,28,03,14,8.90
2021,03,28,03,15,8.90
2021,03,28,03,16,8.90
2021,03,28,03,17,8.90
2021,03,28,03,18,8.90
2021,03,28,03,19,8.90
2021,03,28,03,20,8.90
2021,03,28,03,21,8.90
2021,03,28,03,22,8.80
2021,03,28,03,23,8.80
2021,03,28,03,24,8.80
2021,03,28,03,25,8.90
2021,03,28,03,26,8.90
2021,03,28,03,27,8.90
2021,03,28,03,28,8.90
2021,03,28,03,29,8.90
2021,03,28,03,30,8.90
2021,03,28,03,31,9.00
2021,03,28,03,32,9.00
2021,03,28,03,33,8.90
2021,03,28,03,34,9.00
2021,03,28,03,35,8.90
2021,03,28,03,36,8.90
2021,03,28,03,37,8.90
2021,03,28,03,38,8.90
2021,03,28,03,39,8.90
2021,03,28,03,40,8.90
2021,03,28,03,41,8.90
2021,03,28,03,42,8.90
2021,03,28,03,43,8.90
2021,03,28,03,44,8.90
2021,03,28,03,45,8.90
2021,03,28,03,46,8.90
2021,03,28,03,47,8.90
2021,03,28,03,48,8.90
2021,03,28,03,49,8.90
2021,03,28,03,50,8.90
2021,03,28,03,51,8.90
2021,03,28,03,52,8.90
2021,03,28,03,53,8.90
2021,03,28,03,54,8.90
2021,03,28,03,55,8.90
2021,03,28,03,56,8.90
2021,03,28,03,57,8.80
2021,03,28,03,58,8.80
2021,03,28,03,59,8.80
2021,03,28,04,00,8.70
2021,03,28,04,01,8.70
2021,03,28,04,02,8.60
2021,03,28,04,03,8.60
2021,03,28,04,04,8.60
2021,03,28,04,05,8.50
2021,03,28,04,06,8.50
2021,03,28,04,07,8.50
2021,03,28,04,08,8.50
2021,03,28,04,09,8.50
2021,03,28,04,10,8.40
2021,03,28,04,11,8.40
2021,03,28,04,12,8.40
2021,03,28,04,13,8.40
2021,03,28,04,14,8.50
2021,03,28,04,15,8.40
2021,03,28,04,16,8.50
2021,03,28,04,17,8.50
2021,03,28,04,18,8.50
2021,03,28,04,19,8.50
2021,03,28,04,20,8.50
2021,03,28,04,21,8.60
2021,03,28,04,22,8.60
2021,03,28,04,23,8.60
2021,03,28,04,24,8.70
2021,03,28,04,25,8.70
2021,03,28,04,26,8.70
2021,03,28,04,27,8.80
2021,03,28,04,28,8.80
2021,03,28,04,29,8.80
2021,03,28,04,30,8.80
2021,03,28,04,31,8.80
2021,03,28,04,32,8.80
2021,03,28,04,33,8.80
2021,03,28,04,34,8.80
2021,03,28,04,35,8.80
2021,03,28,04,36,8.80
2021,03,28,04,37,8.80
2021,03,28,04,38,8.80
2021,03,28,04,39,8.80
2021,03,28,04,40,8.80
2021,03,28,04,41,8.80
2021,03,28,04,42,8.70
2021,03,28,04,43,8.70
2021,03,28,04,44,8.70
2021,03,28,04,45,8.70
2021,03,28,04,46,8.70
2021,03,28,04,47,8.70
2021,03,28,04,48,8.70
2021,03,28,04,49,8.60
2021,03,28,04,50,8.60
2021,03,28,04,51,8.60
2021,03,28,04,52,8.60
2021,03,28,04,53,8.60
2021,03,28,04,54,8.50
2021,03,28,04,55,8.50
2021,03,28,04,56,8.50
2021,03,28,04,57,8.40
2021,03,28,04,58,8.50
2021,03,28,04,59,8.40
2021,03,28,05,00,8.40
2021,03,28,05,01,8.40
2021,03,28,05,02,8.50
2021,03,28,05,03,8.40
2021,03,28,05,04,8.50
2021,03,28,05,05,8.40
2021,03,28,05,06,8.40
2021,03,28,05,07,8.40
2021,03,28,05,08,8.40
2021,03,28,05,09,8.40
2021,03,28,05,10,8.40
2021,03,28,05,11,8.40
2021,03,28,05,12,8.40
2021,03,28,05,13,8.40
2021,03,28,05,14,8.40
2021,03,28,05,15,8.40
2021,03,28,05,16,8.30
2021,03,28,05,17,8.30
2021,03,28,05,18,8.30
2021,03,28,05,19,8.30
2021,03,28,05,20,8.30
2021,03,28,05,21,8.30
2021,03,28,05,22,8.30
2021,03,28,05,23,8.30
2021,03,28,05,24,8.40
2021,03,28,05,25,8.40
2021,03,28,05,26,8.40
2021,03,28,05,27,8.40
2021,03,28,05,28,8.30
2021,03,28,05,29,8.30
2021,03,28,05,30,8.30
2021,03,28,05,31,8.30
2021,03,28,05,32,8.30
2021,03,28,05,33,8.30
2021,03,28,05,34,8.30
2021,03,28,05,35,8.30
2021,03,28,05,36,8.20
2021,03,28,05,37,8.20
2021,03,28,05,38,8.20
2021,03,28,05,39,8.20
2021,03,28,05,40,8.10
2021,03,28,05,41,8.10
2021,03,28,05,42,8.10
2021,03,28,05,43,8.10
2021,03,28,05,44,8.10
2021,03,28,05,45,8.00
2021,03,28,05,46,8.00
2021,03,28,05,47,8.00
2021,03,28,05,48,8.00
2021,03,28,05,49,8.00
2021,03,28,05,50,8.00
2021,03,28,05,51,7.90
2021,03,28,05,52,7.90
2021,03,28,05,53,7.90
2021,03,28,05,54,7.90
2021,03,28,05,55,7.90
2021,03,28,05,56,7.80
2021,03,28,05,57,7.80
2021,03,28,05,58,7.80
2021,03,28,05,59,7.80
2021,03,28,06,00,7.80
2021,03,28,06,01,7.80
2021,03,28,06,02,7.80
2021,03,28,06,03,7.80
2021,03,28,06,04,7.80
2021,03,28,06,05,7.80
2021,03,28,06,06,7.80
2021,03,28,06,07,7.80
2021,03,28,06,08,7.80
2021,03,28,06,09,7.80
2021,03,28,06,10,7.80
2021,03,28,06,11,7.80
2021,03,28,06,12,7.80
2021,03,28,06,13,7.80
2021,03,28,06,14,7.80
2021,03,28,06,15,7.80
2021,03,28,06,16,7.70
2021,03,28,06,17,7.80
2021,03,28,06,18,7.80
2021,03,28,06,19,7.70
2021,03,28,06,20,7.80
2021,03,28,06,21,7.70
2021,03,28,06,22,7.70
2021,03,28,06,23,7.70
2021,03,28,06,24,7.70
2021,03,28,06,25,7.70
2021,03,28,06,26,7.70
2021,03,28,06,27,7.70
2021,03,28,06,28,7.70
2021,03,28,06,29,7.70
2021,03,28,06,30,7.70
2021,03,28,06,31,7.70
2021,03,28,06,32,7.70
2021,03,28,06,33,7.60
2021,03,28,06,34,7.60
2021,03,28,06,35,7.60
2021,03,28,06,36,7.60
2021,03,28,06,37,7.60
2021,03,28,06,38,7.60
2021,03,28,06,39,7.60
2021,03,28,06,40,7.60
2021,03,28,06,41,7.60
2021,03,28,06,42,7.60
2021,03,28,06,43,7.60
2021,03,28,06,44,7.60
2021,03,28,06,45,7.60
2021,03,28,06,46,7.60
2021,03,28,06,47,7.60
2021,03,28,06,48,7.50
2021,03,28,06,49,7.50
2021,03,28,06,50,7.50
2021,03,28,06,51,7.50
2021,03,28,06,52,7.50
2021,03,28,06,53,7.50
2021,03,28,06,54,7.50
2021,03,28,06,55,7.50
2021,03,28,06,56,7.50
2021,03,28,06,57,7.50
2021,03,28,06,58,7.50
2021,03,28,06,59,7.50
2021,03,28,07,00,7.50
2021,03,28,07,01,7.50
2021,03,28,07,02,7.50
2021,03,28,07,03,7.50
2021,03,28,07,04,7.50
2021,03,28,07,05,7.60
2021,03,28,07,06,7.50
2021,03,28,07,07,7.50
2021,03,28,07,08,7.50
2021,03,28,07,09,7.50
2021,03,28,07,10,7.50
2021,03,28,07,11,7.50
2021,03,28,07,12,7.50
2021,03,28,07,13,7.50
2021,03,28,07,14,7.50
2021,03,28,07,15,7.50
2021,03,28,07,16,7.50
2021,03,28,07,17,7.50
2021,03,28,07,18,7.50
2021,03,28,07,19,7.50
2021,03,28,07,20,7.50
2021,03,28,07,21,7.60
2021,03,28,07,22,7.60
2021,03,28,07,23,7.60
2021,03,28,07,24,7.60
2021,03,28,07,25,7.60
2021,03,28,07,26,7.60
2021,03,28,07,27,7.60
2021,03,28,07,28,7.60
2021,03,28,07,29,7.60
2021,03,28,07,30,7.60
2021,03,28,07,31,7.60
2021,03,28,07,32,7.60
2021,03,28,07,33,7.60
2021,03,28,07,34,7.60
2021,03,28,07,35,7.60
2021,03,28,07,36,7.60
2021,03,28,07,37,7.60
2021,03,28,07,38,7.60
2021,03,28,07,39,7.60
2021,03,28,07,40,7.60
2021,03,28,07,41,7.60
2021,03,28,07,42,7.60
2021,03,28,07,43,7.60
2021,03,28,07,44,7.60
2021,03,28,07,45,7.60
2021,03,28,07,46,7.60
2021,03,28,07,47,7.60
2021,03,28,07,48,7.60
2021,03,28,07,49,7.50
2021,03,28,07,50,7.50
2021,03,28,07,51,7.50
2021,03,28,07,52,7.50
2021,03,28,07,53,7.40
2021,03,28,07,54,7.40
2021,03,28,07,55,7.40
2021,03,28,07,56,7.40
2021,03,28,07,57,7.40
2021,03,28,07,58,7.40
2021,03,28,07,59,7.40
2021,03,28,08,00,7.40
2021,03,28,08,01,7.40
2021,03,28,08,02,7.40
2021,03,28,08,03,7.40
2021,03,28,08,04,7.40
2021,03,28,08,05,7.40
2021,03,28,08,06,7.40
2021,03,28,08,07,7.50
2021,03,28,08,08,7.50
2021,03,28,08,09,7.60
2021,03,28,08,10,7.60
2021,03,28,08,11,7.60
2021,03,28,08,12,7.60
2021,03,28,08,13,7.60
2021,03,28,08,14,7.60
2021,03,28,08,15,7.60
2021,03,28,08,16,7.60
2021,03,28,08,17,7.60
2021,03,28,08,18,7.60
2021,03,28,08,19,7.60
2021,03,28,08,20,7.60
2021,03,28,08,21,7.50
2021,03,28,08,22,7.50
2021,03,28,08,23,7.50
2021,03,28,08,24,7.50
2021,03,28,08,25,7.50
2021,03,28,08,26,7.40
2021,03,28,08,27,7.40
2021,03,28,08,28,7.40
2021,03,28,08,29,7.40
2021,03,28,08,30,7.40
2021,03,28,08,31,7.40
2021,03,28,08,32,7.40
2021,03,28,08,33,7.40
2021,03,28,08,34,7.40
2021,03,28,08,35,7.30
2021,03,28,08,36,7.30
2021,03,28,08,37,7.30
2021,03,28,08,38,7.40
2021,03,28,08,39,7.30
2021,03,28,08,40,7.30
2021,03,28,08,41,7.30
2021,03,28,08,42,7.30
2021,03,28,08,43,7.30
2021,03,28,08,44,7.40
2021,03,28,08,45,7.30
2021,03,28,08,46,7.30
2021,03,28,08,47,7.30
2021,03,28,08,48,7.40
2021,03,28,08,49,7.40
2021,03,28,08,50,7.40
2021,03,28,08,51,7.40
2021,03,28,08,52,7.40
2021,03,28,08,53,7.40
2021,03,28,08,54,7.40
2021,03,28,08,55,7.40
2021,03,28,08,56,7.40
2021,03,28,08,57,7.40
2021,03,28,08,58,7.40
2021,03,28,08,59,7.50
2021,03,28,09,00,7.50
2021,03,28,09,01,7.50
2021,03,28,09,02,7.50
2021,03,28,09,03,7.60
2021,03,28,09,04,7.60
2021,03,28,09,05,7.70
2021,03,28,09,06,7.70
2021,03,28,09,07,7.70
2021,03,28,09,08,7.80
2021,03,28,09,09,7.80
2021,03,28,09,10,7.80
2021,03,28,09,11,7.90
2021,03,28,09,12,7.90
2021,03,28,09,13,7.90
2021,03,28,09,14,8.00
2021,03,28,09,15,8.10
2021,03,28,09,16,8.10
2021,03,28,09,17,8.20
2021,03,28,09,18,8.20
2021,03,28,09,19,8.30
2021,03,28,09,20,8.30
2021,03,28,09,21,8.30
2021,03,28,09,22,8.30
2021,03,28,09,23,8.30
2021,03,28,09,24,8.30
2021,03,28,09,25,8.40
2021,03,28,09,26,8.40
2021,03,28,09,27,8.40
2021,03,28,09,28,8.40
2021,03,28,09,29,8.40
2021,03,28,09,30,8.40
2021,03,28,09,31,8.40
2021,03,28,09,32,8.50
2021,03,28,09,33,8.50
2021,03,28,09,34,8.50
2021,03,28,09,35,8.60
2021,03,28,09,36,8.60
2021,03,28,09,37,8.60
2021,03,28,09,38,8.60
2021,03,28,09,39,8.60
2021,03,28,09,40,8.60
2021,03,28,09,41,8.60
2021,03,28,09,42,8.60
2021,03,28,09,43,8.60
2021,03,28,09,44,8.60
2021,03,28,09,45,8.60
2021,03,28,09,46,8.60
2021,03,28,09,47,8.60
2021,03,28,09,48,8.60
2021,03,28,09,49,8.50
2021,03,28,09,50,8.50
2021,03,28,09,51,8.50
2021,03,28,09,52,8.50
2021,03,28,09,53,8.50
2021,03,28,09,54,8.50
2021,03,28,09,55,8.50
2021,03,28,09,56,8.50
2021,03,28,09,57,8.50
2021,03,28,09,58,8.40
2021,03,28,09,59,8.40
2021,03,28,10,00,8.40
2021,03,28,10,01,8.40
2021,03,28,10,02,8.40
2021,03,28,10,03,8.40
2021,03,28,10,04,8.40
2021,03,28,10,05,8.40
2021,03,28,10,06,8.40
2021,03,28,10,07,8.40
2021,03,28,10,08,8.40
2021,03,28,10,09,8.30
2021,03,28,10,10,8.30
2021,03,28,10,11,8.20
2021,03,28,10,12,8.20
2021,03,28,10,13,8.10
2021,03,28,10,14,8.00
2021,03,28,10,15,8.00
2021,03,28,10,16,7.90
2021,03,28,10,17,7.80
2021,03,28,10,18,7.80
2021,03,28,10,19,7.80
2021,03,28,10,20,7.70
2021,03,28,10,21,7.60
2021,03,28,10,22,7.60
2021,03,28,10,23,7.50
2021,03,28,10,24,7.50
2021,03,28,10,25,7.40
2021,03,28,10,26,7.40
2021,03,28,10,27,7.30
2021,03,28,10,28,7.30
2021,03,28,10,29,7.20
2021,03,28,10,30,7.00
2021,03,28,10,31,6.90
2021,03,28,10,32,6.80
2021,03,28,10,33,6.80
2021,03,28,10,34,6.80
2021,03,28,10,35,6.80
2021,03,28,10,36,6.80
2021,03,28,10,37,6.80
2021,03,28,10,38,6.80
2021,03,28,10,39,6.80
2021,03,28,10,40,6.70
2021,03,28,10,41,6.70
2021,03,28,10,42,6.70
2021,03,28,10,43,6.70
2021,03,28,10,44,6.60
2021,03,28,10,45,6.60
2021,03,28,10,46,6.60
2021,03,28,10,47,6.60
2021,03,28,10,48,6.60
2021,03,28,10,49,6.60
2021,03,28,10,50,6.70
2021,03,28,10,51,6.70
2021,03,28,10,52,6.70
2021,03,28,10,53,6.70
2021,03,28,10,54,6.70
2021,03,28,10,55,6.70
2021,03,28,10,56,6.70
2021,03,28,10,57,6.70
2021,03,28,10,58,6.80
2021,03,28,10,59,6.80
2021,03,28,11,00,6.80
2021,03,28,11,01,6.80
2021,03,28,11,02,6.80
2021,03,28,11,03,6.80
2021,03,28,11,04,6.80
2021,03,28,11,05,6.80
2021,03,28,11,06,6.70
2021,03,28,11,07,6.70
2021,03,28,11,08,6.70
2021,03,28,11,09,6.60
2021,03,28,11,10,6.60
2021,03,28,11,11,6.50
2021,03,28,11,12,6.40
2021,03,28,11,13,6.40
2021,03,28,11,14,6.30
2021,03,28,11,15,6.30
2021,03,28,11,16,6.30
2021,03,28,11,17,6.30
2021,03,28,11,18,6.30
2021,03,28,11,19,6.20
2021,03,28,11,20,6.20
2021,03,28,11,21,6.10
2021,03,28,11,22,6.10
2021,03,28,11,23,6.10
2021,03,28,11,24,6.10
2021,03,28,11,25,6.10
2021,03,28,11,26,6.20
2021,03,28,11,27,6.20
2021,03,28,11,28,6.20
2021,03,28,11,29,6.30
2021,03,28,11,30,6.30
2021,03,28,11,31,6.30
2021,03,28,11,32,6.40
2021,03,28,11,33,6.40
2021,03,28,11,34,6.40
2021,03,28,11,35,6.40
2021,03,28,11,36,6.40
2021,03,28,11,37,6.30
2021,03,28,11,38,6.30
2021,03,28,11,39,6.40
2021,03,28,11,40,6.40
2021,03,28,11,41,6.40
2021,03,28,11,42,6.40
2021,03,28,11,43,6.50
2021,03,28,11,44,6.50
2021,03,28,11,45,6.50
2021,03,28,11,46,6.50
2021,03,28,11,47,6.50
2021,03,28,11,48,6.60
2021,03,28,11,49,6.70
2021,03,28,11,50,6.70
2021,03,28,11,51,6.80
2021,03,28,11,52,6.80
2021,03,28,11,53,6.80
2021,03,28,11,54,6.70
2021,03,28,11,55,6.70
2021,03,28,11,56,6.80
2021,03,28,11,57,6.90
2021,03,28,11,58,6.90
2021,03,28,11,59,7.00
2021,03,28,12,00,7.00
2021,03,28,12,01,7.00
2021,03,28,12,02,6.90
2021,03,28,12,03,6.90
2021,03,28,12,04,7.00
2021,03,28,12,05,7.00
2021,03,28,12,06,7.10
2021,03,28,12,07,7.10
2021,03,28,12,08,7.00
2021,03,28,12,09,7.00
2021,03,28,12,10,7.00
2021,03,28,12,11,7.00
2021,03,28,12,12,6.90
2021,03,28,12,13,6.90
2021,03,28,12,14,7.00
2021,03,28,12,15,7.00
2021,03,28,12,16,7.10
2021,03,28,12,17,7.20
2021,03,28,12,18,7.30
2021,03,28,12,19,7.40
2021,03,28,12,20,7.40
2021,03,28,12,21,7.40
2021,03,28,12,22,7.40
2021,03,28,12,23,7.40
2021,03,28,12,24,7.50
2021,03,28,12,25,7.60
2021,03,28,12,26,7.80
2021,03,28,12,27,7.90
2021,03,28,12,28,8.10
2021,03,28,12,29,8.30
2021,03,28,12,30,8.40
2021,03,28,12,31,8.50
2021,03,28,12,32,8.60
2021,03,28,12,33,8.80
2021,03,28,12,34,8.90
2021,03,28,12,35,8.90
2021,03,28,12,36,8.90
2021,03,28,12,37,8.90
2021,03,28,12,38,8.80
2021,03,28,12,39,8.70
2021,03,28,12,40,8.60
2021,03,28,12,41,8.40
2021,03,28,12,42,8.30
2021,03,28,12,43,8.30
2021,03,28,12,44,8.20
2021,03,28,12,45,8.10
2021,03,28,12,46,8.00
2021,03,28,12,47,7.90
2021,03,28,12,48,7.80
2021,03,28,12,49,7.70
2021,03,28,12,50,7.60
2021,03,28,12,51,7.60
2021,03,28,12,52,7.60
2021,03,28,12,53,7.60
2021,03,28,12,54,7.50
2021,03,28,12,55,7.40
2021,03,28,12,56,7.30
2021,03,28,12,57,7.20
2021,03,28,12,58,7.00
2021,03,28,12,59,6.90
2021,03,28,13,00,6.70
2021,03,28,13,01,6.50
2021,03,28,13,02,6.20
2021,03,28,13,03,6.00
2021,03,28,13,04,5.70
2021,03,28,13,05,5.60
2021,03,28,13,06,5.30
2021,03,28,13,07,5.20
2021,03,28,13,08,4.90
2021,03,28,13,09,4.70
2021,03,28,13,10,4.50
2021,03,28,13,11,4.30
2021,03,28,13,12,4.20
2021,03,28,13,13,4.00
2021,03,28,13,14,3.90
2021,03,28,13,15,3.90
2021,03,28,13,16,3.80
2021,03,28,13,17,3.80
2021,03,28,13,18,3.80
2021,03,28,13,19,3.80
2021,03,28,13,20,3.80
2021,03,28,13,21,3.70
2021,03,28,13,22,3.70
2021,03,28,13,23,3.70
2021,03,28,13,24,3.70
2021,03,28,13,25,3.70
2021,03,28,13,26,3.70
2021,03,28,13,27,3.70
2021,03,28,13,28,3.70
2021,03,28,13,29,3.70
2021,03,28,13,30,3.70
2021,03,28,13,31,3.70
2021,03,28,13,32,3.70
2021,03,28,13,33,3.70
2021,03,28,13,34,3.80
2021,03,28,13,35,3.80
2021,03,28,13,36,3.80
2021,03,28,13,37,3.90
2021,03,28,13,38,3.90
2021,03,28,13,39,3.90
2021,03,28,13,40,3.90
2021,03,28,13,41,4.00
2021,03,28,13,42,4.00
2021,03,28,13,43,4.00
2021,03,28,13,44,4.00
2021,03,28,13,45,4.00
2021,03,28,13,46,4.00
2021,03,28,13,47,4.10
2021,03,28,13,48,4.10
2021,03,28,13,49,4.10
2021,03,28,13,50,4.20
2021,03,28,13,51,4.20
2021,03,28,13,52,4.20
2021,03,28,13,53,4.30
2021,03,28,13,54,4.30
2021,03,28,13,55,4.40
2021,03,28,13,56,4.40
2021,03,28,13,57,4.40
2021,03,28,13,58,4.50
2021,03,28,13,59,4.60
2021,03,28,14,00,4.60
2021,03,28,14,01,4.70
2021,03,28,14,02,4.80
2021,03,28,14,03,4.80
2021,03,28,14,04,4.90
2021,03,28,14,05,4.90
2021,03,28,14,06,4.90
2021,03,28,14,07,5.00
2021,03,28,14,08,5.10
2021,03,28,14,09,5.20
2021,03,28,14,10,5.20
2021,03,28,14,11,5.30
2021,03,28,14,12,5.30
2021,03,28,14,13,5.40
2021,03,28,14,14,5.40
2021,03,28,14,15,5.50
2021,03,28,14,16,5.50
2021,03,28,14,17,5.60
2021,03,28,14,18,5.60
2021,03,28,14,19,5.70
2021,03,28,14,20,5.70
2021,03,28,14,21,5.80
2021,03,28,14,22,5.80
2021,03,28,14,23,5.90
2021,03,28,14,24,5.90
2021,03,28,14,25,6.00
2021,03,28,14,26,6.10
2021,03,28,14,27,6.20
2021,03,28,14,28,6.30
2021,03,28,14,29,6.30
2021,03,28,14,30,6.40
2021,03,28,14,31,6.40
2021,03,28,14,32,6.50
2021,03,28,14,33,6.50
2021,03,28,14,34,6.60
2021,03,28,14,35,6.60
2021,03,28,14,36,6.60
2021,03,28,14,37,6.70
2021,03,28,14,38,6.70
2021,03,28,14,39,6.80
2021,03,28,14,40,6.80
2021,03,28,14,41,6.90
2021,03,28,14,42,7.00
2021,03,28,14,43,7.00
2021,03,28,14,44,7.10
2021,03,28,14,45,7.20
2021,03,28,14,46,7.30
2021,03,28,14,47,7.30
2021,03,28,14,48,7.40
2021,03,28,14,49,7.50
2021,03,28,14,50,7.50
2021,03,28,14,51,7.50
2021,03,28,14,52,7.60
2021,03,28,14,53,7.60
2021,03,28,14,54,7.70
2021,03,28,14,55,7.70
2021,03,28,14,56,7.70
2021,03,28,14,57,7.70
2021,03,28,14,58,7.80
2021,03,28,14,59,7.80
2021,03,28,15,00,7.80
2021,03,28,15,01,7.80
2021,03,28,15,02,7.90
2021,03,28,15,03,7.90
2021,03,28,15,04,8.00
2021,03,28,15,05,8.00
2021,03,28,15,06,8.10
2021,03,28,15,07,8.10
2021,03,28,15,08,8.10
2021,03,28,15,09,8.20
2021,03,28,15,10,8.20
2021,03,28,15,11,8.20
2021,03,28,15,12,8.30
2021,03,28,15,13,8.30
2021,03,28,15,14,8.30
2021,03,28,15,15,8.30
2021,03,28,15,16,8.40
2021,03,28,15,17,8.50
2021,03,28,15,18,8.60
2021,03,28,15,19,8.60
2021,03,28,15,20,8.70
2021,03,28,15,21,8.80
2021,03,28,15,22,8.80
2021,03,28,15,23,8.90
2021,03,28,15,24,8.90
2021,03,28,15,25,8.90
2021,03,28,15,26,8.90
2021,03,28,15,27,8.90
2021,03,28,15,28,8.90
2021,03,28,15,29,8.90
2021,03,28,15,30,9.00
2021,03,28,15,31,9.10
2021,03,28,15,32,9.10
2021,03,28,15,33,9.20
2021,03,28,15,34,9.30
2021,03,28,15,35,9.30
2021,03,28,15,36,9.40
2021,03,28,15,37,9.40
2021,03,28,15,38,9.40
2021,03,28,15,39,9.40
2021,03,28,15,40,9.40
2021,03,28,15,41,9.40
2021,03,28,15,42,9.50
2021,03,28,20,51,5.10
2021,03,28,20,52,5.00
2021,03,28,20,53,5.00
2021,03,28,20,54,5.00
2021,03,28,20,55,4.90
2021,03,28,20,56,4.90
2021,03,28,20,57,4.90
2021,03,28,20,58,4.90
2021,03,28,20,59,4.90
2021,03,28,21,00,4.90
2021,03,28,21,01,4.90
2021,03,28,21,02,4.90
2021,03,28,21,03,4.90
2021,03,28,21,04,4.90
2021,03,28,21,05,4.90
2021,03,28,21,06,4.90
2021,03,28,21,07,4.90
2021,03,28,21,08,4.90
2021,03,28,21,09,4.90
2021,03,28,21,10,4.90
2021,03,28,21,11,4.90
2021,03,28,21,12,4.90
2021,03,28,21,13,4.90
2021,03,28,21,14,4.90
2021,03,28,21,15,4.90
2021,03,28,21,16,4.90
2021,03,28,21,17,4.90
2021,03,28,21,18,4.90
2021,03,28,21,19,4.90
2021,03,28,21,20,4.90
2021,03,28,21,21,4.90
2021,03,28,21,22,4.90
2021,03,28,21,23,4.90
2021,03,28,21,24,4.90
2021,03,28,21,25,4.90
2021,03,28,21,26,5.00
2021,03,28,21,27,5.00
2021,03,28,21,28,5.00
2021,03,28,21,29,5.00
2021,03,28,21,30,5.00
2021,03,28,21,31,5.10
2021,03,28,21,32,5.10
2021,03,28,21,33,5.10
2021,03,28,21,34,5.10
2021,03,28,21,35,5.10
2021,03,28,21,36,5.10
2021,03,28,21,37,5.10
2021,03,28,21,38,5.10
2021,03,28,21,39,5.10
2021,03,28,21,40,5.10
2021,03,28,21,41,5.10
2021,03,28,21,42,5.10
2021,03,28,21,43,5.10
2021,03,28,21,44,5.10
2021,03,28,21,45,5.10
2021,03,28,21,46,5.10
2021,03,28,21,47,5.10
2021,03,28,21,48,5.10
2021,03,28,21,49,5.10
2021,03,28,21,50,5.10
2021,03,28,21,51,5.10
2021,03,28,21,52,5.10
2021,03,28,21,53,5.20
2021,03,28,21,54,5.20
2021,03,28,21,55,5.10
2021,03,28,21,56,5.10
2021,03,28,21,57,5.20
2021,03,28,21,58,5.20
2021,03,28,21,59,5.20
2021,03,28,22,00,5.20
2021,03,28,22,01,5.10
2021,03,28,22,02,5.10
2021,03,28,22,03,5.10
2021,03,28,22,04,5.10
2021,03,28,22,05,5.00
2021,03,28,22,06,5.00
2021,03,28,22,07,5.00
2021,03,28,22,08,5.00
2021,03,28,22,09,5.00
2021,03,28,22,10,5.00
2021,03,28,22,11,5.00
2021,03,28,22,12,5.00
2021,03,28,22,13,4.90
2021,03,28,22,14,4.90
2021,03,28,22,15,4.90
2021,03,28,22,16,4.90
2021,03,28,22,17,4.90
2021,03,28,22,18,4.90
2021,03,28,22,19,4.80
2021,03,28,22,20,4.80
2021,03,28,22,21,4.80
2021,03,28,22,22,4.80
2021,03,28,22,23,4.80
2021,03,28,22,24,4.80
2021,03,28,22,25,4.70
2021,03,28,22,26,4.80
2021,03,28,22,27,4.80
2021,03,28,22,28,4.80
2021,03,28,22,29,4.80
2021,03,28,22,30,4.80
2021,03,28,22,31,4.80
2021,03,28,22,32,4.80
2021,03,28,22,33,4.80
2021,03,28,22,34,4.80
2021,03,28,22,35,4.80
2021,03,28,22,36,4.80
2021,03,28,22,37,4.90
2021,03,28,22,38,4.90
2021,03,28,22,39,4.90
2021,03,28,22,40,4.90
2021,03,28,22,41,4.90
2021,03,28,22,42,4.90
2021,03,28,22,43,4.90
2021,03,28,22,44,4.90
2021,03,28,22,45,4.90
2021,03,28,22,46,4.90
2021,03,28,22,47,4.90
2021,03,28,22,48,4.90
2021,03,28,22,49,4.90
2021,03,28,22,50,4.80
2021,03,28,22,51,4.80
2021,03,28,22,52,4.80
2021,03,28,22,53,4.80
2021,03,28,22,54,4.80
2021,03,28,22,55,4.70
2021,03,28,22,56,4.70
2021,03,28,22,57,4.70
2021,03,28,22,58,4.60
2021,03,28,22,59,4.60
2021,03,28,23,00,4.60
2021,03,28,23,01,4.60
2021,03,28,23,02,4.60
2021,03,28,23,03,4.60
2021,03,28,23,04,4.60
2021,03,28,23,05,4.60
2021,03,28,23,06,4.60
2021,03,28,23,07,4.60
2021,03,28,23,08,4.60
2021,03,28,23,09,4.60
2021,03,28,23,10,4.60
2021,03,28,23,11,4.60
2021,03,28,23,12,4.60
2021,03,28,23,13,4.60
2021,03,28,23,14,4.70